Time,TemperatureF,DewpointF,PressureIn,WindDirection,WindDirectionDegrees,WindSpeedMPH,WindSpeedGustMPH,Humidity,HourlyPrecipIn,Conditions,Clouds,dailyrainin,SolarRadiationWatts/m^2,SoftwareType,DateUTC
2013-05-14 07:00:00,64.0,45.0,29.93,WSW,249,7.0,-999.0,49,-99.99,,,-99.99,132.199997,,2013-05-14 13:00:00,
2013-05-14 07:52:00,64.0,45.0,29.93,WSW,249,7.0,-999.0,49,-99.99,,,-99.99,132.199997,,2013-05-14 13:52:00,
2013-05-14 08:00:00,72.0,43.0,29.94,WSW,250,9.0,-999.0,35,-99.99,,,-99.99,295.700012,,2013-05-14 14:00:00,
2013-05-14 08:52:00,72.0,43.0,29.94,WSW,250,9.0,-999.0,35,-99.99,,,-99.99,295.700012,,2013-05-14 14:52:00,
2013-05-14 09:00:00,83.0,45.0,29.94,WSW,237,6.0,-999.0,26,-99.99,,,-99.99,480.100006,,2013-05-14 15:00:00,
2013-05-14 09:53:00,83.0,45.0,29.94,WSW,237,6.0,-999.0,26,-99.99,,,-99.99,480.100006,,2013-05-14 15:53:00,
2013-05-14 10:00:00,86.0,36.0,29.94,West,275,10.0,-999.0,17,-99.99,,,-99.99,688.500000,,2013-05-14 16:00:00,
2013-05-14 10:54:00,86.0,36.0,29.94,West,275,10.0,-999.0,17,-99.99,,,-99.99,688.500000,,2013-05-14 16:54:00,
2013-05-14 11:00:00,91.0,37.0,29.93,WNW,297,9.0,-999.0,15,-99.99,,,-99.99,528.700012,,2013-05-14 17:00:00,
2013-05-14 11:52:00,91.0,37.0,29.93,WNW,297,9.0,-999.0,15,-99.99,,,-99.99,528.700012,,2013-05-14 17:52:00,
2013-05-14 12:00:00,93.0,23.0,29.92,NW,324,11.0,-999.0,8,-99.99,,,-99.99,720.000000,,2013-05-14 18:00:00,
2013-05-14 12:52:00,93.0,23.0,29.92,NW,324,11.0,-999.0,8,-99.99,,,-99.99,720.000000,,2013-05-14 18:52:00,
2013-05-14 13:00:00,94.0,26.0,29.90,NNW,341,11.0,-999.0,9,-99.99,,,-99.99,910.000000,,2013-05-14 19:00:00,
2013-05-14 13:53:00,94.0,26.0,29.90,NNW,341,11.0,-999.0,9,-99.99,,,-99.99,910.000000,,2013-05-14 19:53:00,
2013-05-14 14:00:00,95.0,27.0,29.88,North,4,9.0,-999.0,9,-99.99,,,-99.99,914.000000,,2013-05-14 20:00:00,
2013-05-14 14:52:00,95.0,27.0,29.88,North,4,9.0,-999.0,9,-99.99,,,-99.99,914.000000,,2013-05-14 20:52:00,
2013-05-14 15:00:00,95.0,27.0,29.87,NNE,23,9.0,-999.0,9,-99.99,,,-99.99,857.000000,,2013-05-14 21:00:00,
2013-05-14 15:53:00,95.0,27.0,29.87,NNE,23,9.0,-999.0,9,-99.99,,,-99.99,857.000000,,2013-05-14 21:53:00,
2013-05-14 16:00:00,94.0,26.0,29.85,North,352,7.0,-999.0,9,-99.99,,,-99.99,601.299988,,2013-05-14 22:00:00,
2013-05-14 16:54:00,94.0,26.0,29.85,North,352,7.0,-999.0,9,-99.99,,,-99.99,601.299988,,2013-05-14 22:54:00,
2013-05-14 17:00:00,93.0,26.0,29.83,NE,38,6.0,-999.0,9,-99.99,,,-99.99,317.299988,,2013-05-14 23:00:00,
2013-05-14 17:53:00,93.0,26.0,29.83,NE,38,6.0,-999.0,9,-99.99,,,-99.99,317.299988,,2013-05-14 23:53:00,
2013-05-14 18:00:00,91.0,29.0,29.83,NNE,31,8.0,-999.0,11,-99.99,,,-99.99,149.899994,,2013-05-15 00:00:00,
2013-05-14 18:52:00,91.0,29.0,29.83,NNE,31,8.0,-999.0,11,-99.99,,,-99.99,149.899994,,2013-05-15 00:52:00,